(471432) = 2006 VC29 = 2010 HY4 = 2011 UC70

Discovered at Kitt Peak on 2006-11-10 by Spacewatch.

Orbit

Orbit type: Main Belt

Note: WebGL enabled browser required.

epoch2024-03-31.0
epoch JD2460400.5
perihelion date2022-03-07.80881
perihelion JD2459646.30881
argument of perihelion (°)128.89469
ascending node (°)257.14598
inclination (°)10.56895
eccentricity0.1155381
perihelion distance (AU)2.6736311
Tisserand w.r.t. Jupiter3.2
ΔV w.r.t. Earth (km/sec)10.7
semimajor axis (AU)3.0228901
mean anomaly (°)141.43332
mean daily motion (°/day)0.18752980
aphelion distance (AU)3.372
period (years)5.26
P-vector [x]0.88560954
P-vector [y]0.34869335
P-vector [z]0.30677140
Q-vector [x]-0.42862380
Q-vector [y]0.86797823
Q-vector [z]0.25078962
absolute magnitude16.01
phase slope0.15
uncertainty0
referenceMPEC 2024-F28
observations used315
oppositions12
arc length (days)6338
first opposition used2006
last opposition used2024
residual rms (arc-secs)0.69
perturbers coarse indicatorM-v
perturbers precise indicator003Ek
first observation date used2006-11-10.0
last observation date used2024-03-18.0
computer nameMPCLINUX
JD of orbit computation2457615.782947
perihelion JD uncertainty (days)2.2251E-04
argument of perihelion uncertainty (°)5.4105E-05
ascending node uncertainty (°)4.0087E-05
inclination uncertainty (°)8.6980E-06
eccentricity uncertainty 9.6630E-08
perihelion distance uncertainty (AU)3.1080E-07
Minimum Orbit Intersection Distances (in AU)
for orbit epoch: 2460400.5, reference: E2024-GD4
Mercury2.34729
Venus1.96554
Earth1.69443
Mars1.22633
Jupiter2.08223
Saturn6.12847
Uranus15.2095
Neptune27.1455

Observations

321 total observations over interval: 2006 11 10.27338 – 2024 03 18.436270
These data are available for download (format description).

Date (UT) J2000 RA J2000 Dec Magn Location Ref
2006 11 10.27338 04 35 45.49 +26 13 17.5 20.4 V 691 – Steward Observatory, Kitt Peak-Spacewatch MPS 187246
2006 11 10.29078 04 35 44.71 +26 13 13.1 20.5 V 691 – Steward Observatory, Kitt Peak-Spacewatch MPS 187246
2006 11 10.30817 04 35 43.88 +26 13 08.4 20.3 V 691 – Steward Observatory, Kitt Peak-Spacewatch MPS 187246
2006 11 14.31810 04 32 35.94 +25 53 59.8   691 – Steward Observatory, Kitt Peak-Spacewatch MPS 187246
2006 11 14.33554 04 32 35.07 +25 53 54.8   691 – Steward Observatory, Kitt Peak-Spacewatch MPS 187246
2006 11 14.35296 04 32 34.19 +25 53 49.5   691 – Steward Observatory, Kitt Peak-Spacewatch MPS 187246
2006 11 18.20977 04 29 19.90 +25 33 52.3 20.7 V 691 – Steward Observatory, Kitt Peak-Spacewatch MPS 188873
2006 11 18.22717 04 29 18.95 +25 33 46.4 20.5 V 691 – Steward Observatory, Kitt Peak-Spacewatch MPS 188873
2006 11 18.24457 04 29 18.05 +25 33 41.6 20.7 V 691 – Steward Observatory, Kitt Peak-Spacewatch MPS 188873
2010 04 16.53204 19 49 40.77 -17 08 43.5   C51 – WISE MPS 323725
2010 04 16.532042 19 49 40.78 -17 08 43.5   C51 – WISE MPS 323725
2010 04 16.664346 19 49 46.53 -17 08 03.3   C51 – WISE MPS 323725
2010 04 16.796650 19 49 52.28 -17 07 23.6   C51 – WISE MPS 323725
2010 04 16.862738 19 49 55.14 -17 07 03.7   C51 – WISE MPS 323725
2010 04 16.928954 19 49 57.95 -17 06 44.1   C51 – WISE MPS 323725
2010 04 16.995043 19 50 00.80 -17 06 24.5   C51 – WISE MPS 323725
2010 04 17.061258 19 50 03.65 -17 06 03.6   C51 – WISE MPS 323725
2010 04 17.127347 19 50 06.53 -17 05 45.1   C51 – WISE MPS 323725
2010 04 17.524259 19 50 23.45 -17 03 43.9   C51 – WISE MPS 323725
2010 04 17.524387 19 50 23.44 -17 03 45.0   C51 – WISE MPS 323725
2011 10 05.08039 02 36 24.97 +27 01 43.6 19.6 R 461 – University of Szeged, Piszkesteto Stn. (Konkol MPS 400154
2011 10 05.09123 02 36 24.60 +27 01 42.0 19.2 R 461 – University of Szeged, Piszkesteto Stn. (Konkol MPS 400154
2011 10 05.10208 02 36 24.28 +27 01 40.3 19.3 R 461 – University of Szeged, Piszkesteto Stn. (Konkol MPS 400154
2011 10 21.79287 02 25 25.93 +25 52 43.3 19.4 R 461 – University of Szeged, Piszkesteto Stn. (Konkol MPS 396586
2011 10 21.80403 02 25 25.42 +25 52 40.0 19.4 R 461 – University of Szeged, Piszkesteto Stn. (Konkol MPS 396586
2011 10 21.81515 02 25 24.87 +25 52 36.0 19.2 R 461 – University of Szeged, Piszkesteto Stn. (Konkol MPS 396586
2011 10 23.32433 02 24 13.60 +25 43 43.3 20.2 V G96 – Mt. Lemmon Survey MPS 396586
2011 10 23.33179 02 24 13.21 +25 43 40.4 20.3 V G96 – Mt. Lemmon Survey MPS 396586
2011 10 23.33927 02 24 12.85 +25 43 37.9 20.2 V G96 – Mt. Lemmon Survey MPS 396586
2011 11 26.83751 01 59 58.47 +21 16 55.3 20.3   A14 – Les Engarouines Observatory MPS 402504
2011 11 26.84498 01 59 58.26 +21 16 51.5 20.2   A14 – Les Engarouines Observatory MPS 402504
2011 11 26.85243 01 59 58.06 +21 16 48.0 20.2   A14 – Les Engarouines Observatory MPS 402504
2011 12 26.76574 01 58 39.17 +18 18 50.7 20.4   A14 – Les Engarouines Observatory MPS 404740
2011 12 26.77329 01 58 39.30 +18 18 50.0 21.1   A14 – Les Engarouines Observatory MPS 404740
2011 12 26.78074 01 58 39.42 +18 18 47.9 21.1   A14 – Les Engarouines Observatory MPS 404740
2012 12 11.49835 09 29 02.58 +04 28 37.8 21.0 V G96 – Mt. Lemmon Survey MPS 448788
2012 12 11.50472 09 29 02.61 +04 28 36.3 21.1 V G96 – Mt. Lemmon Survey MPS 448788
2012 12 11.51120 09 29 02.58 +04 28 34.8 20.7 V G96 – Mt. Lemmon Survey MPS 448788
2012 12 11.51771 09 29 02.58 +04 28 32.6 21.1 V G96 – Mt. Lemmon Survey MPS 448788
2013 01 18.48665 09 13 16.458 +02 53 33.74 20.5 w F51 – Pan-STARRS 1, Haleakala MPS 452360
2013 01 18.50102 09 13 15.775 +02 53 33.81 20.4 w F51 – Pan-STARRS 1, Haleakala MPS 452360
2013 01 18.51542 09 13 15.091 +02 53 33.90 20.4 w F51 – Pan-STARRS 1, Haleakala MPS 452360
2013 01 18.52987 09 13 14.414 +02 53 34.02 20.4 w F51 – Pan-STARRS 1, Haleakala MPS 452360
2014 05 19.28569 12 58 37.453 -17 27 06.74 21.3 w F51 – Pan-STARRS 1, Haleakala MPS 515329
2014 05 19.29693 12 58 37.213 -17 27 02.73 21.2 w F51 – Pan-STARRS 1, Haleakala MPS 515329
2014 05 19.30815 12 58 36.984 -17 26 58.81 21.3 w F51 – Pan-STARRS 1, Haleakala MPS 515329
2014 05 19.31936 12 58 36.736 -17 26 54.89 21.2 w F51 – Pan-STARRS 1, Haleakala MPS 515329
2016 06 06.44260 23 58 05.31 +10 46 31.4 21.5 V G96 – Mt. Lemmon Survey MPS 713880
2016 06 06.44837 23 58 05.68 +10 46 35.3 21.6 V G96 – Mt. Lemmon Survey MPS 713880
2016 06 06.45396 23 58 06.03 +10 46 38.1 20.9 V G96 – Mt. Lemmon Survey MPS 713880
2016 06 06.45959 23 58 06.41 +10 46 41.4 21.2 V G96 – Mt. Lemmon Survey MPS 713880
2016 08 14.77761 00 41 51.42 +19 46 56.4 20.7 R D29 – Purple Mountain Observatory, XuYi Station MPS 723488
2016 08 14.79528 00 41 51.39 +19 47 00.3 20.8 R D29 – Purple Mountain Observatory, XuYi Station MPS 723488
2016 09 06.29721 00 35 38.88 +20 25 11.8   G96 – Mt. Lemmon Survey MPS 729968
2016 09 06.30381 00 35 38.62 +20 25 12.3   G96 – Mt. Lemmon Survey MPS 729968
2016 09 06.31041 00 35 38.39 +20 25 11.7   G96 – Mt. Lemmon Survey MPS 729968
2016 09 06.31695 00 35 38.17 +20 25 11.6 19.6 V G96 – Mt. Lemmon Survey MPS 729968
2016 09 08.71359 00 34 20.16 +20 22 41.6 20.0 R D29 – Purple Mountain Observatory, XuYi Station MPS 729968
2016 09 08.72773 00 34 19.62 +20 22 40.6 20.5 R D29 – Purple Mountain Observatory, XuYi Station MPS 729968
2016 09 22.39146 00 25 17.48 +19 42 43.7 19.6 V G96 – Mt. Lemmon Survey MPS 730685
2016 09 22.39605 00 25 17.27 +19 42 42.4 20.0 V G96 – Mt. Lemmon Survey MPS 730685
2016 09 22.40167 00 25 17.01 +19 42 40.9 19.8 V G96 – Mt. Lemmon Survey MPS 730685
2016 09 22.40631 00 25 16.79 +19 42 40.0 19.7 V G96 – Mt. Lemmon Survey MPS 730685
2016 10 02.17962 00 17 55.69 +18 49 10.3 19.7 V G96 – Mt. Lemmon Survey MPS 734264
2016 10 02.18281 00 17 55.53 +18 49 09.2 19.6 V G96 – Mt. Lemmon Survey MPS 734264
2016 10 02.18598 00 17 55.38 +18 49 08.4 19.6 V G96 – Mt. Lemmon Survey MPS 734264
2016 10 02.18917 00 17 55.20 +18 49 07.1 19.9 V G96 – Mt. Lemmon Survey MPS 734264
2016 10 05.23095 00 15 38.60 +18 28 57.7 19.9 G G45 – Space Surveillance Telescope, Atom Site MPS 1610836
2016 10 05.26574 00 15 36.98 +18 28 44.2 19.4 G G45 – Space Surveillance Telescope, Atom Site MPS 1610836
2016 10 05.33981 00 15 33.58 +18 28 12.8 20.2 G G45 – Space Surveillance Telescope, Atom Site MPS 1610836
2016 10 05.41192 00 15 30.27 +18 27 42.9 19.8 G G45 – Space Surveillance Telescope, Atom Site MPS 1610836
2016 10 05.45228 00 15 28.42 +18 27 25.9 19.8 G G45 – Space Surveillance Telescope, Atom Site MPS 1610836
2016 10 07.24870 00 14 09.85 +18 14 51.9 19.8 G G45 – Space Surveillance Telescope, Atom Site MPS 1610836
2016 10 07.29527 00 14 07.70 +18 14 31.4 19.7 G G45 – Space Surveillance Telescope, Atom Site MPS 1610836
2016 10 07.33818 00 14 05.79 +18 14 12.3 19.7 G G45 – Space Surveillance Telescope, Atom Site MPS 1610836
2016 10 07.39309 00 14 03.35 +18 13 49.8 19.6 G G45 – Space Surveillance Telescope, Atom Site MPS 1610836
2016 10 08.27338 00 13 25.51 +18 07 29.8 19.5 V G96 – Mt. Lemmon Survey MPS 736188
2016 10 08.27769 00 13 25.31 +18 07 27.8 19.4 V G96 – Mt. Lemmon Survey MPS 736188
2016 10 08.28576 00 13 24.96 +18 07 24.6   G96 – Mt. Lemmon Survey MPS 736188
2016 10 08.29328 00 13 24.59 +18 07 21.6   G96 – Mt. Lemmon Survey MPS 736188
2016 10 09.29979 00 12 41.910 +18 00 00.40 19.6 i F51 – Pan-STARRS 1, Haleakala MPS 736188
2016 10 09.30366 00 12 41.739 +17 59 58.72 19.6 i F51 – Pan-STARRS 1, Haleakala MPS 736188
2016 10 09.31205 00 12 41.365 +17 59 54.97 19.7 i F51 – Pan-STARRS 1, Haleakala MPS 736188
2016 10 09.31595 00 12 41.196 +17 59 53.36 19.6 i F51 – Pan-STARRS 1, Haleakala MPS 736188
2016 10 09.33666 00 12 40.276 +17 59 44.25 19.7 i F51 – Pan-STARRS 1, Haleakala MPS 736188
2016 10 09.34056 00 12 40.106 +17 59 42.61 19.6 i F51 – Pan-STARRS 1, Haleakala MPS 736188
2016 10 12.18083 00 10 42.76 +17 38 20.3 20.7 V 703 – Catalina Sky Survey MPS 736188
2016 10 12.19600 00 10 42.04 +17 38 12.1 19.5 V 703 – Catalina Sky Survey MPS 736188
2016 10 19.42422 00 06 12.966 +16 41 19.72 19.6 i F51 – Pan-STARRS 1, Haleakala MPS 737423
2016 10 19.43577 00 06 12.559 +16 41 14.15 19.7 i F51 – Pan-STARRS 1, Haleakala MPS 737423
